www.pogodaiklimat.ru

Погода и климат >> Архив погоды >> Марокко >> Агадир


ПОГОДА в Агадире

  • Прогноз погоды в Агадире
  • Монитор погоды в Агадире

АРХИВ ПОГОДЫ в Агадире

Время (UTC), дата Ветер
(напр.,м/с)
 
Видим.   Явления Облачность Т
(С)
Тd
(С)
f
(%)
Тe
(С)
Тes
(С)
Комфортность P
(гПа)
Po
(гПа)
Тmin
(С)
Tmax
(С)
R
(мм)
R24
(мм)
S
(см)
00 9.06 СВ 4 10 км 3/3 480 м
[Sc]
+16.6 +13.9 84 +16 +16 1019.7 1010.4
03 9.06 ЮВ 3 10 км 3/3 480 м
[Sc]
+15.3 +12.9 86 +15 +15 1018.4 1009.0
06 9.06 штиль 0 10 км 3/3 480 м
[Sc]
+14.7 +12.6 87 +14 +14 1018.6 1009.3 +14.6
09 9.06 ЮЗ 6 10 км 5/5 600 м
[Sc]
+20.3 +14.4 69 +22 +24 комфорт 1019.5 1010.1
12 9.06 З 12 10 км 3/3 700 м
[Sc]
+24.9 +14.7 53 +28 +28 жарко 1018.4 1009.1
15 9.06 ЮЗ 13 10 км ясно +25.4 +13.4 47 +27 +27 жарко 1016.5 1007.1
18 9.06 Ю 19 10 км ясно +21.6 +13.1 58 +24 +24 комфорт 1015.8 1006.4 +25.8
21 9.06 Ю 11 10 км ясно +18.1 +13.0 72 +17 +17 1017.3 1007.9
00 10.06 Ю 4 10 км ясно +17.3 +12.9 75 +17 +17 1017.7 1008.4
03 10.06 СВ 3 10 км ясно +14.8 +12.1 84 +14 +14 1016.2 1006.9
06 10.06 З 4 10 км ясно +13.5 +11.2 86 +12 +12 1016.0 1006.7 +13.3
09 10.06 ЮЗ 6 10 км 3/3 600 м
[Sc]
+19.8 +13.8 68 +21 +24 комфорт 1016.1 1006.7
12 10.06 З 7 10 км 1/1 600 м
[Sc]
+25.3 +14.0 50 +28 +33 жарко 1014.7 1005.3
15 10.06 ЮЗ 13 10 км ясно +26.7 +12.2 41 +28 +28 жарко 1012.2 1003.0
18 10.06 Ю 18 10 км ясно +23.5 +13.1 52 +26 +26 жарко 1010.8 1001.5 +27.9
21 10.06 Ю 12 10 км ясно 0.0 +14.6 78 +18 +18 очень
душно
1012.3 1003.0
00 11.06 ЮЗ 4 10 км ясно +17.6 +13.4 76 +17 +17 1012.8 1003.5
03 11.06 ЮВ 3 10 км ясно +16.6 +13.0 79 +16 +16 1011.4 1002.1
06 11.06 Ю 3 10 км ясно +15.7 +12.8 83 +15 +15 1011.3 1002.1 +15.1
09 11.06 ЮЗ 4 10 км ясно +19.9 +14.7 72 +22 +29 комфорт 1011.6 1000.2
12 11.06 З 12 10 км ясно +24.8 +14.7 53 +27 +27 жарко 1010.3 1001.0
15 11.06 ЮЗ 13 10 км ясно +26.7 +12.0 40 +28 +28 жарко 1008.6 999.4
18 11.06 ЮЗ 14 10 км ясно 0.0 999.1 +27.4
21 11.06 Ю 6 10 км ясно +18.5 +13.8 74 +19 +19 1010.1 1000.8
00 12.06 штиль 0 10 км ясно +17.6 +13.7 78 +18 +18 1009.4 1000.2
03 12.06 ЮЗ 3 10 км ясно +16.7 +12.8 78 +16 +16 1007.7 998.4
06 12.06 Ю 4 8000 м 3/3 480 м
[Sc]
+15.4 +12.4 82 +14 +14 1007.7 998.5 +15.3
09 12.06 З 5 8000 м 1/1 480 м
[Sc]
+20.1 +14.5 70 +22 +27 комфорт 1008.4 999.1
12 12.06 З 10 10 км 1/1 480 м
[Sc]
+24.3 +14.3 54 +27 +28 жарко 1008.0 998.7
15 12.06 ЮЗ 10 10 км ясно 0.0 +14.4 50 +28 +29 очень
душно
1007.0 998.1
18 12.06 ЮЗ 16 10 км 3/3 480 м
[Sc]
+20.7 +14.9 69 +23 +23 комфорт 1007.6 998.4 +25.7
21 12.06 Ю 9 8000 м 8/8 480 м
[Sc]
+18.9 +15.5 81 +19 +19 1010.1 1000.9
00 13.06 ЮВ 4 8000 м 10/10 480 м
[Sc]
+18.0 +16.7 92 +18 +18 1010.6 1001.3
03 13.06 ЮВ 3 6000 м 10/10 300 м
[Sc]
+18.5 +16.2 86 +19 +19 1009.0 999.8
06 13.06 Ю 6 8000 м 10/10 300 м
[Sc As op]
+19.0 +16.4 85 +20 +20 1009.0 999.6 +17.9
09 13.06 ЮЗ 4 8000 м 10/10 300 м
[Sc]
+19.1 +16.6 85 +21 +21 комфорт 1010.8 1001.6
12 13.06 З 7 8000 м 10/10 300 м
[Sc]
+21.3 +15.7 70 +25 +25 комфорт 1012.1 1002.9
15 13.06 ЮЗ 11 8000 м 5/5 800 м
[Sc]
+25.7 +13.7 47 +28 +28 жарко 1011.8 1002.6
18 13.06 ЮЗ 12 8000 м 5/5 800 м
[Sc]
+23.6 +13.4 53 +26 +26 жарко 1012.5 1003.3 +26.1
21 13.06 Ю 13 10 км 6/6 800 м
[Sc]
+18.1 +13.9 76 +17 +17 1015.0 1005.7
00 14.06 Ю 4 10 км 6/6 800 м
[Sc]
0.0 +13.6 79 +17 +17 очень
душно
1016.1 1006.8
03 14.06 З 3 10 км 5/5 600 м
[Sc]
0.0 1006.3
06 14.06 СВ 3 10 км 3/3 600 м
[Sc]
+14.8 +12.6 87 +14 +14 1016.0 1006.7 +14.5
09 14.06 ЮЗ 4 10 км ясно +20.7 +13.0 61 +23 +30 комфорт 1016.8 1007.5
12 14.06 З 13 10 км ясно +25.1 +13.6 49 +27 +27 жарко 1016.7 1007.4
15 14.06 З 16 10 км ясно +25.7 +12.5 44 +27 +27 жарко 1015.5 1006.2
18 14.06 10 км ясно 0.0 +27.1
21 14.06 Ю 12 10 км ясно 0.0 1017.0 1007.7
00 15.06 В 3 10 км ясно +17.0 +12.7 76 +17 +17 1017.8 1008.5
03 15.06 штиль 0 10 км ясно +14.0 +11.1 83 +14 +14 1016.7 1007.4
06 15.06 С 3 10 км ясно +12.9 +10.9 88 +11 +12 1017.0 1007.7 +12.7
09 15.06 ЮЗ 5 10 км 3/3 600 м
[Sc]
+20.1 +13.2 64 +22 +26 комфорт 1017.7 1008.4
12 15.06 ЮЗ 8 10 км ясно +24.8 +13.0 48 +27 +31 жарко 1016.8 1007.5
15 15.06 З 15 10 км ясно +25.8 +12.7 44 +28 +28 жарко 1015.0 1005.7
18 15.06 10 км ясно 0.0 +26.9
21 15.06 10 км ясно 0.0

 

Местоположение метеостанции Агадир (Марокко): широта 30.32 долгота -9.40 высота над уровнем моря 23 м.

В архиве по умолчанию представлена погода в Агадире за последнюю неделю. Архивные данные за месяц целиком и за предыдущие месяцы, начиная с января 2011 года, Вы можете получить, выбрав интересующий диапазон дат из раскрывающегося списка и нажав кнопку "Ввод!".


*Определитесь, кто Вы:
робот инопланетянин человек

Внимание! Время в таблицах - всемирное. Для получения местного времени необходимо прибавить поправку, которая равна 0 ч.

Смотрите также архив погоды в соседних городах и на ближайших метеорологических станциях:

Погода в Агадире (Марокко) (18 км)
Погода в Таруданте (Марокко) (59 км)
Погода в Тизните (Марокко) (78 км)
Погода в Аэропорту Эс-Сувейра-Могадор (Марокко) (123 км)
Погода в Сиди-Ифни (Марокко) (130 км)
Погода в Эс-Сувейре (Марокко) (138 км)
Погода в Гулимине (Марокко) (158 км)
Погода в Марракеше (Марокко) (195 км)
Погода в Сафи (Марокко) (219 км)
Погода в Варзазате (Марокко) (249 км)

Пояснения к столбцам:

Ветер - указаны скорость ветра в м/с - средняя за 10 мин, порывы в срок и между сроками (в фигурных скобках) и направление, откуда дует ветер: С - северный, СВ - северо-восточный, В - восточный, ЮВ - юго-восточный, Ю - южный, ЮЗ - юго-западный, З - западный, СЗ - северо-западный.
Видимость - горизонтальная дальность видимости в метрах или километрах. При видимости от 1 до 10 км при отсутствии осадков обычно наблюдается дымка, при ухудшении видимости до 1 км и менее - туман. В сухую погоду видимость может ухудшаться дымом, пылью или мглою.
Явления - указаны атмосферные явления, наблюдавшиеся в срок или в последний час перед сроком; фигурными скобками обозначены явления, наблюдавшиеся между сроками (за 1-3 часа до срока); квадратными скобками обозначены град или гололедные отложения с указанием их диаметра в мм.
Облачность - указаны через наклонную черту общая и нижняя облачность в баллах и высота нижней границы облаков в метрах; квадратными скобками обозначены формы облаков: Ci - перистые, Cs - перисто-слоистые, Cc - перисто-кучевые, Ac - высококучевые, As - высокослоистые, Sc - слоисто-кучевые, Ns - слоисто-дождевые, Cu - кучевые, Cb - кучево-дождевые. Подробнее классификацию облаков см. в Атласе облаков (PDF).
T - Температура воздуха - температура, измеренная на высоте 2 м над землей.
Td - Температура точки росы - температура, при понижении до которой содержащийся в воздухе водяной пар достигнет насыщения.
f - Относительная влажность воздуха - влажноcть воздуха, измеренная на высоте 2 м над землей.
Te - Эффективная температура - температура, которую ощущает одетый по сезону человек в тени. Характеристика душности погоды. При расчете учитывается влияние влажности воздуха и скорости ветра на теплоощущения человека.
Tes - Эффективная температура на солнце - температура, которую ощущает человек, с поправкой на солнечный нагрев. Характеристика знойности погоды. Зависит от высоты солнца над горизонтом, облачности и скорости ветра. Ночью, в пасмурную погоду, а также при ветре 12 м/с и более поправка равна нулю.
P - Атмосферное давление - приведенное к уровню моря атмосферное давление.
Po - Атмосферное давление - измеренное на уровне метеостанции атмосферное давление.
Tmin - Минимальная температура - минимум температуры воздуха на высоте 2 м над землей.
Tmax - Максимальная температура - максимум температуры воздуха на высоте 2 м над землей.
R - Количество осадков - Количество выпавших осадков за период времени, мм. При наведении курсора мыши на число - период времени, за который выпало указанное количество осадков.
R24 - Количество осадков - Количество выпавших осадков за 24 часа, мм.
S - Снежный покров - Высота снежного покрова, см. При наведении курсора мыши на число - состояние снежного покрова и степень покрытия местности в баллах.